Погода в Беркат-Юрте

Россия / Чеченская Республика     43°19′56″N   45°49′23″E
темп.,
°C
ветер,
м/с
пор.,
м/с
влажн.,
%
обл.,
%
осадки,
мм/ч
давл.,
гПа
погр.,
м
28 июля, ср
ср2800:00+20зсз2385100 1.3 1017291
03:00+17зюз3580100 2.2 1017293
06:00+17з2384100 0.3 1018382
09:00+16зюз1293100 2.6 1019278
12:00+16юз2492100 1.3 1019264
15:00+17ююз1285100 1.4 1018202
18:00+18сз0179100 0.0 1018158
21:00+18юз2382100 0.0 1018102
29 июля, чт
чт2900:00+17юз118284 0.0 101618
03:00+16юз11843 0.0 101523
06:00+18ююз11770 0.0 101673
09:00+24всв23510 0.0 1015789
12:00+30всв34280 0.0 10131979
15:00+32всв65210 0.0 10112454
18:00+29всв57240 0.0 10111001
21:00+23в14400 0.0 1012206
30 июля, пт
пт3000:00+21юз12480 0.0 101233
03:00+19ююз11550 0.0 101152
06:00+20юз11550 0.0 101286
09:00+27ссв11370 0.0 1012603
12:00+32св23250 0.0 10101529
15:00+34св23220 0.0 10082531
18:00+31всв55267 0.0 1008912
21:00+24в244695 0.0 1010232
31 июля, сб
сб3100:00+23юз005453 0.0 100937
03:00+21юз12580 0.0 100945
06:00+22юз12570 0.0 1010120
09:00+29сз11411 0.0 1010692
12:00+33с22280 0.0 10081831
15:00+35с22240 0.0 10072592
18:00+34сз342860 0.0 10071067
21:00+27ю01410 0.0 100939
1 августа, вс
вс100:00+25ююз24540 0.0 1009150
03:00+23юз12576 0.0 100950
06:00+24юз12555 0.0 1010110
09:00+30зсз22364 0.0 1010772
12:00+35с21232 0.0 10082010
15:00+37с2221100 0.0 10072535
18:00+34в232887 0.0 1007683
21:00+27вюв234898 0.0 1009243